Regional Weather Roundup
Issued by NWS

Home | Current Version | Previous Version | Text Only | Print | Product List | Glossary Off
Versions: 1 2 3 4 5 6 7 8 9 10 11 12 13 14 15 16 17 18 19 20 21 22 23 24 25 26 27 28 29 30 31 32 33 34 35 36 37 38 39 40 41 42 43 44 45 46 47 48 49 50

454
ASUS43 KBIS 270802
RWRND

NORTH DAKOTA REGIONAL WEATHER ROUNDUP
NATIONAL WEATHER SERVICE BISMARCK ND
300 AM CDT WED JUL 27 2016

NOTE: "FAIR" INDICATES FEW OR NO CLOUDS BELOW 12,000 FEET WITH NO
SIGNIFICANT WEATHER AND/OR OBSTRUCTIONS TO VISIBILITY.


NDZ001>003-009>011-017-270900-
NORTHWEST NORTH DAKOTA

CITY           SKY/WX    TMP DP  RH WIND       PRES   REMARKS
WILLISTON      CLEAR     63  54  72 CALM      30.10R
MINOT          MOCLDY    65  62  90 N6        30.09R
MINOT AFB      PTCLDY    65  61  87 E7        30.09R
$$

NDZ018>021-031>035-040>046-270900-
SOUTHWEST NORTH DAKOTA

CITY           SKY/WX    TMP DP  RH WIND       PRES   REMARKS
BISMARCK       CLOUDY    63  60  90 N5        30.06R
DICKINSON      MOCLDY    54  53  97 CALM      30.10S
GARRISON         N/A     60  59  96 N3        30.09R
HETTINGER ARPT CLEAR     62  58  86 NE6       30.11R
$$

NDZ004>008-012>016-024-026-027-054-270900-
NORTHEAST NORTH DAKOTA

CITY           SKY/WX    TMP DP  RH WIND       PRES   REMARKS
GRAND FORKS    CLOUDY    66  62  87 N8        30.00F
GRND FRKS AFB  CLOUDY    65  62  89 NE8       30.01F
DEVILS LAKE    CLOUDY    64  61  90 NE9       30.06S
$$

NDZ022-023-025-028>030-036>039-047>053-270900-
SOUTHEAST NORTH DAKOTA

CITY           SKY/WX    TMP DP  RH WIND       PRES   REMARKS
FARGO          CLOUDY    67  65  93 N6        29.97R
JAMESTOWN      MOCLDY    63  61  93 NE5       30.02R
$$





USA.gov is the U.S. government's official web portal to all federal, state and local government web resources and services.